Weather in Smara

Morocco     26°43′06″N   11°38′15″W
temp.,
°C
wind,
m/s
gust,
m/s
humid.,
%
clouds,
%
prec.,
mm/h
press.,
hPa
HPBL,
m
17 may, mon
mon1701:00+20nw46730 0.0 1014184
04:00+19nnw238135 0.0 101380
07:00+17nnw2286100 0.0 101452
10:00+22nnw5658100 0.0 1015441
13:00+30n6730100 0.0 1014898
16:00+34n89200 0.0 10121209
19:00+30n910280 0.0 1012846
22:00+23nnw585659 0.0 1015370
18 may, tue
tue1801:00+20nnw5106992 0.0 1015392
04:00+19nw4773100 0.0 1014294
07:00+18wnw4579100 0.0 1016298
10:00+21nnw3463100 0.0 1017430
13:00+26nnw7839100 0.0 1016590
16:00+30n8828100 0.0 1013827
19:00+27nnw653899 0.0 1014626
22:00+21nw6864100 0.0 1016302
19 may, wed
wed1901:00+19nnw577898 0.0 1015329
04:00+17nw468883 0.0 1015312
07:00+18nnw3482100 0.0 1015413
10:00+20nw2272100 0.0 1016430
13:00+26wnw114453 0.0 1014681
16:00+32nw33241 0.0 10111375
19:00+32wnw43240 0.0 10101152
22:00+28wnw69374 0.0 1012181
20 may, thu
thu2001:00+22nw456616 0.0 1013210
04:00+21wnw34645 0.0 101179
07:00+20nw23619 0.0 101121
10:00+25nw33452 0.0 1012356
13:00+32n11270 0.0 1011770
16:00+38nw15132 0.0 10093305
19:00+37sse441184 0.0 1008943
22:00+28n9113659 0.0 1011359
21 may, fri
fri2101:00+25n364841 0.0 1012171
04:00+24nnw35442 0.0 101072
07:00+23nne22490 0.0 101021
10:00+28nne23351 0.0 1010348
13:00+36ene13180 0.0 10091247
16:00+41e2784 0.0 10055411
19:00+40sse56610 0.0 10044552
22:00+29w911350 0.0 1007230